| time (UTC) | temp C | wind direction | speed KPH | gust KPH | rain 1hr cm | rain 24hr cm | rain mn cm | humidity % | barometer mb |
| 20260905132815 | 30 | 336 | 0.0 | 0.0 | 0.13 | 0.13 | 0.13 | 60 | 1017.9 |
| 20260905132314 | 31 | 335 | 0.0 | 0.0 | 0.13 | 0.13 | 0.13 | 55 | 1017.9 |
| 20260905131814 | 31 | 336 | 0.0 | 0.0 | 0.13 | 0.13 | 0.13 | 53 | 1017.9 |
| 20260905130315 | 32 | 336 | 0.0 | 0.0 | 0.13 | 0.13 | 0.13 | 51 | 1018.0 |
| 20260905124315 | 30 | 336 | 0.0 | 0.0 | 0.13 | 0.13 | 0.13 | 58 | 1018.2 |
| 20260905123815 | 30 | 336 | 1.6 | 9.7 | 0.13 | 0.13 | 0.13 | 58 | 1018.2 |
| 20260905123315 | 30 | 336 | 3.2 | 9.7 | 0.13 | 0.13 | 0.13 | 56 | 1018.2 |
| 20260905122815 | 30 | 343 | 3.2 | 8.0 | 0.00 | 0.00 | 0.00 | 51 | 1018.4 |
| 20260905122315 | 30 | 13 | 3.2 | 8.0 | 0.00 | 0.00 | 0.00 | 53 | 1018.4 |
| 20260905121814 | 30 | 125 | 3.2 | 9.7 | 0.00 | 0.00 | 0.00 | 53 | 1018.4 |
| 20260905120815 | 28 | 150 | 3.2 | 9.7 | 0.00 | 0.00 | 0.00 | 55 | 1018.5 |
| 20260905120314 | 28 | 263 | 3.2 | 8.0 | 0.00 | 0.00 | 0.00 | 54 | 1018.5 |
| 20260905115815 | 28 | 247 | 4.8 | 8.0 | 0.00 | 0.00 | 0.00 | 54 | 1018.7 |
| 20260905115315 | 28 | 267 | 4.8 | 8.0 | 0.00 | 0.00 | 0.00 | 55 | 1018.7 |
| 20260905114815 | 28 | 332 | 4.8 | 12.9 | 0.00 | 0.00 | 0.00 | 55 | 1018.7 |
| 20260905114315 | 28 | 283 | 3.2 | 12.9 | 0.00 | 0.00 | 0.00 | 54 | 1018.7 |
| 20260905113815 | 28 | 239 | 3.2 | 11.3 | 0.00 | 0.00 | 0.00 | 55 | 1018.7 |
| 20260905113315 | 27 | 217 | 3.2 | 8.0 | 0.00 | 0.00 | 0.00 | 56 | 1018.7 |
| 20260905112815 | 27 | 357 | 3.2 | 8.0 | 0.00 | 0.00 | 0.00 | 55 | 1018.8 |
| 20260905112315 | 27 | 203 | 3.2 | 8.0 | 0.00 | 0.00 | 0.00 | 56 | 1018.8 |
| 20260905111814 | 27 | 269 | 3.2 | 4.8 | 0.00 | 0.00 | 0.00 | 57 | 1018.8 |
| 20260905111314 | 27 | 245 | 3.2 | 4.8 | 0.00 | 0.00 | 0.00 | 57 | 1018.8 |
| 20260905110815 | 27 | 207 | 3.2 | 4.8 | 0.00 | 0.00 | 0.00 | 56 | 1018.8 |
| 20260905110315 | 27 | 207 | 3.2 | 8.0 | 0.00 | 0.00 | 0.00 | 57 | 1018.8 |
| 20260905105315 | 27 | 193 | 3.2 | 4.8 | 0.00 | 0.00 | 0.00 | 58 | 1019.1 |
| 20260905104315 | 26 | 194 | 3.2 | 4.8 | 0.00 | 0.00 | 0.00 | 57 | 1019.1 |
| 20260905103815 | 26 | 193 | 3.2 | 4.8 | 0.00 | 0.00 | 0.00 | 56 | 1019.1 |
| 20260905103315 | 26 | 193 | 3.2 | 4.8 | 0.00 | 0.00 | 0.00 | 57 | 1019.1 |
| 20260905102814 | 26 | 206 | 3.2 | 4.8 | 0.00 | 0.00 | 0.00 | 61 | 1019.1 |
| 20260905102314 | 26 | 206 | 3.2 | 4.8 | 0.00 | 0.00 | 0.00 | 61 | 1019.1 |
| 20260905101815 | 26 | 208 | 3.2 | 4.8 | 0.00 | 0.00 | 0.00 | 62 | 1019.1 |
| 20260905101315 | 26 | 208 | 3.2 | 4.8 | 0.00 | 0.00 | 0.00 | 62 | 1019.3 |
| 20260905100815 | 25 | 207 | 3.2 | 8.0 | 0.00 | 0.00 | 0.00 | 64 | 1019.3 |